"Pseudo-MPEC" for I63E1If

Created 2020 Feb 15 16:07:15 UT using Find_Orb

Click here for an explanation of pseudo-MPECs

 
 Astrometry: 
     I63E1If !C2020 02 04/Uh5I\77l2I7erl6tUlOQoD-ifRxA@gD#$[I7*eNI^thNw)Ck48GW84
     I63E1If !C2020 02 042jxRh?s/dP4Ey%*?S-#(uQY74\Hn)4nsfG;_tKI$9I#-vK:y-j*fW84
     I63E1If !C2020 02 04[B@7!._utAstrometry`jZZ;]8.`LGlRbl_,PgoH_i_axE\r+LR@W84
     I63E1If !C2020 02 04BjXPPNWxA/:gHF=NgfwMV\4T[JAP3ar#sredacted;I-+Ciyd7y'W84
     I63E1If !C2020 02 04fgHcn$y\25,8V\%qU(DX6F8uC'u-ti^;7!/;!k'jQ?F4clickEqCW84
     I63E1If !C2020 02 04';Uqmm_NhGF6+2M,ABag#+rv+`A)#rhere^t4+gMY/t0187q333TW84
     I63E1If !C2020 02 046M3Jg.q1x/`f;for':explanationNk4TqE?c6kPJ$+:v2MFy6MJW84

Station data:
(W84) Cerro Tololo-DECam  (S30.169597 W70.806420)  Chile. 4.0-m f/2.87
   reflector + CCD.

Orbital elements:  I63E1If
   Perihelion 2020 May 11.690567 +/- 65.2 TT = 16:34:25 (JD 2458981.190567)
Epoch 2020 Feb  4.0 TT = JDT 2458883.5   Earth MOID: 0.0001   Ve: 0.0157
M 238.01257437 +/- 60               (J2000 ecliptic)          AutoNEOCP
n   1.24871243 +/- 0.219            Peri.  140.04181 +/- 6
a   0.85407188 +/- 0.1              Node   136.19961 +/- 1.9
e   0.2392313 +/- 0.49              Incl.   13.03378 +/- 39
P   0.79/288.29d           H 31.0   G  0.15   U 11.7  
q 0.64975109 +/- 0.477    Q 1.05839267 +/- 0.289
From 7 observations 2020 Feb. 4 (50.1 min); mean residual 0".71
Residuals in arcseconds: 
200204 W84  .37-  .14-    200204 W84  .30+  .24+    200204 W84  .74+  .40+    
200204 W84  .97+  .42+    200204 W84  .83+  .48+    
200204 W84  1.1-  .63-    200204 W84  1.4-  .76-    

Ephemerides (geocentric):
Date (UTC) HH   RA              Dec         delta   r     elong  mag " sig PA
---- -- -- --  -------------   -----------  ------ ------ -----  --- ---- ---
2020 02 15 16  22 39 46.277   +33 56 39.28  .05103 .95428  48.0 30?? 179d  75
2020 02 15 17  22 39 46.759   +33 56 23.95  .05124 .95413  48.0 30?? 179d  75
2020 02 15 18  22 39 47.233   +33 56 08.59  .05146 .95398  48.0 30?? 179d  75
2020 02 15 19  22 39 47.701   +33 55 53.20  .05168 .95383  47.9 30?? 179d  75
2020 02 15 20  22 39 48.162   +33 55 37.76  .05189 .95368  47.9 30?? 179d  75
2020 02 15 21  22 39 48.616   +33 55 22.29  .05211 .95353  47.9 30?? 179d  75
2020 02 15 22  22 39 49.064   +33 55 06.79  .05233 .95339  47.9 30?? 179d  75
2020 02 15 23  22 39 49.506   +33 54 51.24  .05254 .95324  47.8 30?? 179d  75
2020 02 16 00  22 39 49.941   +33 54 35.66  .05276 .95309  47.8 30?? 179d  74
2020 02 16 01  22 39 50.370   +33 54 20.04  .05298 .95294  47.8 30?? 179d  74
2020 02 16 02  22 39 50.792   +33 54 04.39  .05319 .95279  47.8 30?? 179d  74
2020 02 16 03  22 39 51.209   +33 53 48.70  .05341 .95264  47.7 30?? 179d  74
2020 02 16 04  22 39 51.620   +33 53 32.97  .05363 .95249  47.7 30?? 179d  74
2020 02 16 05  22 39 52.024   +33 53 17.20  .05384 .95234  47.7 30?? 179d  74
2020 02 16 06  22 39 52.423   +33 53 01.39  .05406 .95219  47.6 30?? 179d  74
2020 02 16 07  22 39 52.816   +33 52 45.55  .05428 .95204  47.6 30?? 179d  74
2020 02 16 08  22 39 53.203   +33 52 29.66  .05449 .95189  47.6 30?? 179d  74
2020 02 16 09  22 39 53.584   +33 52 13.74  .05471 .95174  47.6 30?? 179d  74
2020 02 16 10  22 39 53.959   +33 51 57.78  .05493 .95159  47.5 30?? 179d  73
2020 02 16 11  22 39 54.329   +33 51 41.77  .05514 .95144  47.5 30?? 179d  73
2020 02 16 12  22 39 54.694   +33 51 25.73  .05536 .95129  47.5 30?? 179d  73
2020 02 16 13  22 39 55.053   +33 51 09.65  .05558 .95114  47.5 30?? 179d  73
2020 02 16 14  22 39 55.407   +33 50 53.53  .05579 .95099  47.4 30?? 179d  73
2020 02 16 15  22 39 55.755   +33 50 37.37  .05601 .95084  47.4 30?? 179d  73
2020 02 16 16  22 39 56.098   +33 50 21.17  .05623 .95069  47.4 30?? 179d  73
2020 02 16 17  22 39 56.435   +33 50 04.93  .05645 .95054  47.4 30?? 179d  73
2020 02 16 18  22 39 56.768   +33 49 48.65  .05666 .95039  47.3 30?? 179d  73
2020 02 16 19  22 39 57.095   +33 49 32.32  .05688 .95023  47.3 30?? 179d  72
2020 02 16 20  22 39 57.418   +33 49 15.96  .05710 .95008  47.3 30?? 179d  72
2020 02 16 21  22 39 57.735   +33 48 59.55  .05731 .94993  47.3 30?? 179d  72
2020 02 16 22  22 39 58.047   +33 48 43.11  .05753 .94978  47.2 30?? 179d  72
2020 02 16 23  22 39 58.355   +33 48 26.62  .05775 .94963  47.2 30?? 179d  72
2020 02 17 00  22 39 58.657   +33 48 10.09  .05796 .94948  47.2 30?? 179d  72
2020 02 17 01  22 39 58.955   +33 47 53.52  .05818 .94932  47.1 30?? 180d  72
2020 02 17 02  22 39 59.248   +33 47 36.90  .05840 .94917  47.1 30?? 180d  72
2020 02 17 03  22 39 59.536   +33 47 20.25  .05861 .94902  47.1 30?? 180d  72
2020 02 17 04  22 39 59.820   +33 47 03.55  .05883 .94887  47.1 30?? 180d  71
2020 02 17 05  22 40 00.099   +33 46 46.81  .05905 .94872  47.0 30?? 180d  71
2020 02 17 06  22 40 00.373   +33 46 30.02  .05927 .94856  47.0 30?? 180d  71
2020 02 17 07  22 40 00.643   +33 46 13.20  .05948 .94841  47.0 30?? 180d  71
2020 02 17 08  22 40 00.908   +33 45 56.33  .05970 .94826  47.0 30?? 180d  71
2020 02 17 09  22 40 01.169   +33 45 39.41  .05992 .94810  46.9 30?? 180d  71
2020 02 17 10  22 40 01.426   +33 45 22.46  .06013 .94795  46.9 30?? 180d  71
2020 02 17 11  22 40 01.678   +33 45 05.46  .06035 .94780  46.9 30?? 180d  71
2020 02 17 12  22 40 01.926   +33 44 48.41  .06057 .94765  46.9 30?? 180d  71
2020 02 17 13  22 40 02.170   +33 44 31.33  .06079 .94749  46.8 30?? 180d  70
2020 02 17 14  22 40 02.409   +33 44 14.19  .06100 .94734  46.8 30?? 180d  70
2020 02 17 15  22 40 02.645   +33 43 57.02  .06122 .94718  46.8 30?? 180d  70